Tracking 19245 objects as of 21-Aug-2018
HD Live streaming from Space Station
objects crossing your sky now

FLOCK 3P 27

Track FLOCK 3P 27 now!
10-day predictions
FLOCK 3P 27 is classified as:


NORAD ID: 41963
Int'l Code: 2017-008R
Perigee: 491.5 km
Apogee: 505.6 km
Inclination: 97.4 °
Period: 94.4 minutes
Semi major axis: 6869 km
RCS: Unknown
Launch date: February 15, 2017
Source: United States (US)
Launch site: SRIHARIKOTA (SRI)
aabbcc
Your satellite tracking list
Your tracking list is empty




NASA's NSSDC Master Catalog

Two Line Element Set (TLE):
1 41963U 17008R   18232.48617681 +.00002439 +00000-0 +10116-3 0  9996
2 41963 097.4452 296.9066 0010248 120.2238 240.0015 15.24792625083744
Source of the keplerian elements: AFSPC